Base de Aviação de Taubaté Airport
SBTA : now visible

Airfield :











YOU CAN JOIN US ON...

 
LOGIN :

Register | Disclaimer

   EN    FR    IT 

 









Legend :    VFR   Marginal VFR   IFR   Intensive IFR   Very Intensive IFR
Visi :
Ceiling :
>= 8 km
>= 3000ft
5 to 8 km
1000 to 3000 ft
1500m to 5 km
500 to 1000 ft
800 to 1500m
200 to 500 ft
< 800m
< 200 ft
Symbols :   Thunderstorms  Fog  Heavy snow  Heavy precipitations  Wind > 20 kt






- Airport Elevation : 1908 ft
- IATA code : QHP


SBTA - Base de Aviação de Taubaté

CURRENT METAR :
  • 202000Z 07005KT 5000 BR BKN035 OVC050 21/19 Q1017

EXPIRED METARs :
  • 201900Z 03003KT 6000 OVC045 21/18 Q1017
  • 201800Z 02004KT 6000 FEW040 BKN100 21/18 Q1017

Expired Forecast.
SBCW FIR / South America



MET'MAP, your aeronautical weather chart ! - Copyright ORBIFLY December 2007 - Disclaimer

ORBIFLY MET'MAP TEAM :

Programming & Development : Alexandra Zaïnal
Concept & original design : Baudouin d'Aumeries
Assistance for programming : Marc-Olivier Méhu
Technical & hardware support : Manuel Goepfert

Contact : metmap@orbifly.com




SOURCES & CREDITS :

   NOAA       Earth
Advisory